Location: Grasslands National Park East Block
(49.0708°N, 106.5295°W)
Time: 19:00:03
(UTC-06:00)

Vanguard 1 - Pass Details

Date: 23 September 2019
Orbit: 653 x 3830 km, 34.3° (Epoch: 12 October)

Event Time Altitude Azimuth Distance (km) Brightness Sun altitude
Rises 23:37:06 0° 189° (S) 7,050 - -38.3°
Reaches altitude 10° 23:43:20 10° 176° (S) 6,435 - -38.7°
Maximum altitude 23:57:47 22° 135° (SE) 5,883 - -39.6°
Exits shadow 00:06:45 17° 108° (ESE) 6,234 13.8 -40.0°
Drops below altitude 10° 00:12:38 10° 94° (E) 6,715 14.1 -40.3°
Sets 00:19:11 0° 82° (E) 7,432 14.5 -40.6°
